Regional Weather Roundup
Issued by NWS

Home | Current Version | Previous Version | Text Only | Print | Product List | Glossary On
Versions: 1 2 3 4 5 6 7 8 9 10 11 12 13 14 15 16 17 18 19 20 21 22 23 24 25 26 27 28 29 30 31 32 33 34 35 36 37 38 39 40 41 42 43 44 45 46 47 48 49 50
000
ASUS44 KMEG 210510
RWRTN
TENNESSEE HOURLY STATE WEATHER ROUNDUP
NATIONAL WEATHER SERVICE MEMPHIS TN
1100 PM CST FRI JAN 20 2017

TNZ002-004-019-021-049-052-054-088>092-210600-
WEST TENNESSEE

CITY           SKY/WX    TMP DP  RH WIND       PRES   REMARKS
MEMPHIS INTL   MOCLDY    61  55  81 S7        29.70S
NWS MEMPHIS      N/A     62 N/A N/A MISG        N/A
JACKSON        MOCLDY    62  53  72 S9        29.72S
DYERSBURG      MOCLDY    61  54  77 SW5       29.70R
UNION CITY     CLEAR     57  57 100 CALM      29.69R
PARIS          CLEAR     55  52  88 CALM      29.71S
HUNTINGDON     CLEAR     59  54  82 S8        29.71S
$$

TNZ008-025-027-028-033-062-065-066-210600-
NORTH MIDDLE TENNESSEE

CITY           SKY/WX    TMP DP  RH WIND       PRES   REMARKS
NASHVILLE      CLOUDY    59  52  77 S9        29.76S
PORTLAND       CLEAR     59  52  77 S12       29.75F
CLARKSVILLE    CLOUDY    57  50  77 S5        29.73R
SMYRNA         PTCLDY    59  52  77 S5        29.78S
GALLATIN       CLEAR     61  52  72 S7        29.79F
CROSSVILLE     MOCLDY    55  49  80 S5        29.85S
$$

TNZ061-075-076-078-094-096-097-210600-
SOUTH MIDDLE TENNESSEE

CITY           SKY/WX    TMP DP  RH WIND       PRES   REMARKS
TULLAHOMA      CLEAR     59  52  77 SE5       29.81F
WINCHESTER     CLEAR     61  52  72 S3        29.82S
MCMINNVILLE    CLEAR     55  52  88 CALM      29.81R
COLUMBIA       CLEAR     63  61  94 S9        29.75S
SHELBYVILLE    CLEAR     63  55  77 S7        29.80S
$$

TNZ017-018-042-046-047-210600-
NORTHEAST TENNESSEE

CITY           SKY/WX    TMP DP  RH WIND       PRES   REMARKS
TRI CITIES     PTCLDY    48  47  96 N3        29.88S
ELIZABETHTON   PTCLDY    48  46  93 CALM      29.89F
$$

TNZ012-013-036-069-073-074-210600-
CENTRAL EAST TENNESSEE

CITY           SKY/WX    TMP DP  RH WIND       PRES   REMARKS
KNOXVILLE      CLOUDY    57  49  74 CALM      29.83S
OAK RIDGE      MOCLDY    52  49  89 CALM      29.85S
GATLINBURG     CLEAR     48  46  93 CALM      29.85S
MORRISTOWN     CLEAR     54  50  87 CALM      29.85S
JACKSBORO      CLEAR     48  46  93 CALM      29.87S
$$

TNZ083-085-099-210600-
SOUTHEAST TENNESSEE

CITY           SKY/WX    TMP DP  RH WIND       PRES   REMARKS
CHATTANOOGA    PTCLDY    55  51  86 CALM      29.85R
$$

SKY/WX REPORTED AS FAIR MEANS FEW OR NO CLOUDS BELOW
12 THOUSAND FEET.





USA.gov is the U.S. government's official web portal to all federal, state and local government web resources and services.